GW4285 Weather Reports


Display with metric or nautical units.
time (UTC)temp
F
wind
direction
speed
MPH
gust
MPH
rain 1hr
in
rain 24hr
in
rain mn
in
humidity
%
barometer
mb
20260504234441 53 254 0.0 3.0 0.05 0.08 0.08 96 1015.6
20260504233938 53 244 0.0 5.0 0.00 0.07 0.07 96 1015.4
20260504233433 53 272 2.0 3.0 0.07 0.07 0.07 96 1015.6
20260504232931 53 244 3.0 4.0 0.07 0.07 0.07 96 1015.4
20260504232428 53 257 2.0 4.0 0.00 0.06 0.06 96 1015.3
20260504231925 53 262 3.0 4.0 0.12 0.06 0.06 95 1015.2
20260504231421 54 253 4.0 5.0 0.12 0.05 0.05 95 1015.4
20260504230917 54 255 0.0 0.0 0.05 0.04 0.04 96 1015.4
20260504230415 54 265 0.0 1.0 0.07 0.03 0.03 94 1015.5
20260504225913 54 261 0.0 3.0 0.07 0.03 0.03 94 1015.4
20260504225410 55 260 0.0 1.0 0.00 0.02 0.02 94 1015.7
20260504224907 55 264 2.0 3.0 0.07 0.02 0.02 94 1015.5
20260504224403 55 273 0.0 4.0 0.12 0.02 0.02 93 1015.4
20260504223901 55 254 0.0 3.0 0.05 0.01 0.01 92 1015.4
20260504223356 56 237 5.0 7.0 0.00 0.00 0.00 89 1015.5
20260504222852 56 256 0.0 4.0 0.00 0.00 0.00 89 1015.4
20260504222349 56 259 0.0 4.0 0.00 0.00 0.00 89 1015.5
20260504221848 57 259 3.0 4.0 0.00 0.00 0.00 87 1015.7
20260504221344 57 245 3.0 10.0 0.00 0.00 0.00 87 1015.7
20260504220841 57 259 3.0 5.0 0.00 0.00 0.00 86 1015.5
20260504220338 57 261 5.0 10.0 0.00 0.00 0.00 84 1015.4
20260504215835 58 239 5.0 7.0 0.00 0.00 0.00 82 1015.3
20260504215331 59 279 7.0 10.0 0.00 0.00 0.00 80 1015.4
20260504214828 59 245 4.0 7.0 0.00 0.00 0.00 80 1015.2
20260504214325 59 249 3.0 4.0 0.00 0.00 0.00 79 1015.2
20260504213821 59 260 5.0 5.0 0.00 0.00 0.00 77 1015.3
20260504213317 59 259 5.0 8.0 0.00 0.00 0.00 78 1015.2
20260504212815 59 251 4.0 8.0 0.00 0.00 0.00 76 1015.4
20260504212311 59 244 4.0 10.0 0.00 0.00 0.00 76 1015.3
20260504211809 60 245 3.0 7.0 0.00 0.00 0.00 75 1015.5
20260504211304 60 247 4.0 10.0 0.00 0.00 0.00 75 1015.5
20260504210802 60 232 3.0 5.0 0.00 0.00 0.00 73 1015.5
20260504210259 61 247 5.0 10.0 0.00 0.00 0.00 74 1015.4
20260504205756 62 248 1.0 5.0 0.00 0.00 0.00 73 1015.5
20260504205254 61 255 0.0 4.0 0.00 0.00 0.00 75 1015.4
20260504204752 61 252 3.0 5.0 0.00 0.00 0.00 73 1015.4
20260504204250 61 263 5.0 8.0 0.00 0.00 0.00 73 1015.3
20260504203749 62 248 4.0 5.0 0.00 0.00 0.00 73 1015.3
20260504203246 61 232 5.0 10.0 0.00 0.00 0.00 72 1015.3
20260504202747 60 262 4.0 7.0 0.00 0.00 0.00 71 1015.3
20260504202244 60 244 4.0 5.0 0.00 0.00 0.00 75 1015.4
20260504201741 60 262 1.0 8.0 0.00 0.00 0.00 75 1015.3
20260504201238 60 254 4.0 12.0 0.00 0.00 0.00 75 1015.3
20260504200736 60 259 5.0 11.0 0.00 0.00 0.00 76 1015.2
20260504200231 61 241 2.0 4.0 0.00 0.00 0.00 74 1015.3
20260504195728 61 255 4.0 7.0 0.00 0.00 0.00 73 1015.3
20260504195224 61 256 5.0 7.0 0.00 0.00 0.00 74 1015.3
20260504194722 61 233 4.0 8.0 0.00 0.00 0.00 72 1015.3
20260504194217 61 255 3.0 5.0 0.00 0.00 0.00 69 1015.3
20260504193714 61 257 2.0 4.0 0.00 0.00 0.00 70 1015.5
20260504193212 61 248 0.0 1.0 0.00 0.00 0.00 70 1015.2
20260504192710 61 237 0.0 0.0 0.00 0.00 0.00 69 1015.4
20260504192208 61 193 1.0 3.0 0.00 0.00 0.00 69 1015.3
20260504191706 60 239 0.0 3.0 0.00 0.00 0.00 71 1015.3
20260504191202 61 257 2.0 4.0 0.00 0.00 0.00 70 1015.3
20260504190658 60 253 4.0 5.0 0.00 0.00 0.00 69 1015.3
20260504190154 62 250 2.0 3.0 0.00 0.00 0.00 67 1015.5
20260504185651 64 233 1.0 4.0 0.00 0.00 0.00 64 1015.4
20260504185148 64 259 0.0 1.0 0.00 0.00 0.00 64 1015.4
20260504184644 63 240 0.0 3.0 0.00 0.00 0.00 66 1015.4
20260504184139 62 217 2.0 3.0 0.00 0.00 0.00 69 1015.4
20260504183636 62 261 0.0 3.0 0.00 0.00 0.00 71 1015.3
20260504183133 63 252 5.0 7.0 0.00 0.00 0.00 70 1015.3
20260504182631 61 256 1.0 4.0 0.00 0.00 0.00 71 1015.3
20260504182128 63 247 3.0 5.0 0.00 0.00 0.00 70 1015.3
20260504181626 60 235 1.0 4.0 0.00 0.00 0.00 74 1015.4
20260504181123 60 249 2.0 5.0 0.00 0.00 0.00 77 1015.4
20260504180622 60 263 3.0 5.0 0.00 0.00 0.00 73 1015.4
20260504180121 60 243 1.0 3.0 0.00 0.00 0.00 78 1015.4
20260504175617 61 261 4.0 10.0 0.00 0.00 0.00 76 1015.4
20260504175114 59 235 5.0 7.0 0.00 0.00 0.00 77 1015.4
20260504174612 60 260 1.0 4.0 0.00 0.00 0.00 77 1015.4
20260504174108 60 250 1.0 4.0 0.00 0.00 0.00 77 1015.3
20260504173605 59 256 5.0 5.0 0.00 0.00 0.00 78 1015.3
20260504173103 59 259 4.0 5.0 0.00 0.00 0.00 79 1015.4
20260504172559 57 258 0.0 1.0 0.00 0.00 0.00 81 1015.4
20260504172056 57 250 4.0 5.0 0.00 0.00 0.00 82 1015.5
20260504171552 57 235 1.0 5.0 0.00 0.00 0.00 84 1015.3
20260504171050 56 148 0.0 3.0 0.00 0.00 0.00 85 1015.4
20260504170545 56 245 0.0 0.0 0.00 0.00 0.00 88 1015.1
20260504150929 50 306 0.0 0.0 0.00 0.00 0.00 99 1014.8
20260504150426 50 306 0.0 0.0 0.00 0.00 0.00 99 1014.9
20260504140852 48 306 0.0 0.0 0.00 0.00 0.00 99 1014.8
20260504140349 48 307 0.0 0.0 0.00 0.00 0.00 99 1014.8
20260504130817 48 308 0.0 0.0 0.00 0.00 0.00 99 1014.3
20260504130314 48 308 0.0 0.0 0.00 0.00 0.00 99 1014.3
20260504120237 48 307 0.0 0.0 0.00 0.00 0.00 99 1014.3
20260504110704 48 302 0.0 0.0 0.00 0.00 0.00 99 1014.2
20260504110201 48 302 0.0 0.0 0.00 0.00 0.00 99 1014.1
20260504100125 49 294 0.0 0.0 0.00 0.00 0.00 99 1014.3
20260504081518 50 282 0.0 0.0 0.00 0.00 0.00 98 1014.7
20260504081013 50 282 0.0 0.0 0.00 0.00 0.00 98 1014.6
20260504080510 50 282 0.0 0.0 0.00 0.00 0.00 98 1014.7
20260504050328 51 246 0.0 0.0 0.00 0.00 0.00 96 1014.6
20260504045825 52 246 0.0 0.0 0.00 0.00 0.00 96 1014.4
20260504045320 52 246 0.0 0.0 0.00 0.00 0.00 96 1014.4
20260504044817 52 256 0.0 0.0 0.00 0.00 0.00 96 1014.4
20260504044314 52 254 0.0 0.0 0.00 0.00 0.00 95 1014.3
20260504043812 52 249 0.0 0.0 0.00 0.00 0.00 95 1014.3
20260504043308 52 246 0.0 0.0 0.00 0.00 0.00 95 1014.3
20260504042806 52 246 0.0 0.0 0.00 0.00 0.00 94 1014.2
20260504042304 52 246 0.0 0.0 0.00 0.00 0.00 94 1014.2
20260504041759 52 246 0.0 0.0 0.00 0.00 0.00 94 1014.1
20260504041255 52 246 0.0 0.0 0.00 0.00 0.00 94 1014.1
20260504040751 53 246 0.0 0.0 0.00 0.00 0.00 93 1013.9
20260504040249 52 251 0.0 0.0 0.00 0.00 0.00 93 1013.9
20260504035744 52 244 0.0 0.0 0.00 0.00 0.00 93 1014.0
20260504035242 52 244 0.0 0.0 0.00 0.00 0.00 93 1013.8
20260504034739 52 243 0.0 0.0 0.00 0.00 0.00 92 1013.7
20260504034236 52 243 0.0 0.0 0.00 0.00 0.00 92 1013.7
20260504033734 52 243 0.0 0.0 0.00 0.00 0.00 92 1013.7
20260504033231 52 243 0.0 0.0 0.00 0.00 0.00 91 1013.7
20260504032728 53 243 0.0 0.0 0.00 0.00 0.00 91 1013.7
20260504032225 53 243 0.0 0.0 0.00 0.00 0.00 90 1013.5
20260504031722 53 243 0.0 0.0 0.00 0.00 0.00 90 1013.6
20260504031219 53 244 0.0 0.0 0.00 0.00 0.00 89 1013.7
20260504030715 53 243 0.0 0.0 0.00 0.00 0.00 89 1013.8
20260504030213 54 243 0.0 0.0 0.00 0.00 0.00 89 1013.5
20260504025709 54 251 0.0 0.0 0.00 0.00 0.00 88 1013.5
20260504025205 54 258 0.0 0.0 0.00 0.00 0.00 87 1013.5
20260504024703 55 259 0.0 1.0 0.00 0.00 0.00 87 1013.4
20260504024159 55 266 4.0 4.0 0.00 0.00 0.00 85 1013.4
20260504023656 55 256 0.0 3.0 0.00 0.00 0.00 84 1013.3
20260504023152 56 245 0.0 4.0 0.00 0.00 0.00 83 1013.2
20260504022648 56 271 3.0 7.0 0.00 0.00 0.00 82 1013.1
20260504022144 56 262 4.0 7.0 0.00 0.00 0.00 82 1013.1
20260504021642 56 249 5.0 10.0 0.00 0.00 0.00 82 1013.0
20260504021139 56 263 4.0 8.0 0.00 0.00 0.00 81 1013.1
20260504020636 56 234 3.0 8.0 0.00 0.00 0.00 81 1013.0
20260504020132 56 268 3.0 10.0 0.00 0.00 0.00 82 1013.2
20260504015628 57 244 6.0 11.0 0.00 0.00 0.00 81 1013.0
20260504015125 57 283 7.0 8.0 0.00 0.00 0.00 79 1013.1
20260504014621 59 243 4.0 7.0 0.00 0.00 0.00 79 1013.1
20260504014118 58 248 1.0 5.0 0.00 0.00 0.00 78 1013.1
20260504013615 59 264 5.0 7.0 0.00 0.00 0.00 77 1013.1
20260504013112 59 230 4.0 8.0 0.00 0.00 0.00 77 1013.1
20260504012610 60 254 1.0 5.0 0.00 0.00 0.00 74 1013.1
20260504012108 59 245 2.0 8.0 0.00 0.00 0.00 77 1013.1
20260504011604 58 240 3.0 8.0 0.00 0.00 0.00 78 1013.0
20260504011100 59 253 7.0 8.0 0.00 0.00 0.00 77 1013.2
20260504010556 61 264 5.0 8.0 0.00 0.00 0.00 73 1013.1
20260504010052 59 252 5.0 10.0 0.00 0.00 0.00 77 1013.1
20260504005549 59 264 4.0 10.0 0.00 0.00 0.00 76 1013.2
20260504005046 60 251 6.0 10.0 0.00 0.00 0.00 74 1013.3
20260504004544 59 240 3.0 10.0 0.00 0.00 0.00 76 1013.3
20260504004041 60 233 3.0 7.0 0.00 0.00 0.00 75 1013.1
20260504003537 60 251 8.0 10.0 0.00 0.00 0.00 75 1013.3
20260504003034 59 266 2.0 3.0 0.00 0.00 0.00 76 1013.3
20260504002531 58 278 8.0 10.0 0.00 0.00 0.00 76 1013.2
20260504002028 58 262 5.0 7.0 0.00 0.00 0.00 77 1013.2
20260504001526 58 238 3.0 7.0 0.00 0.00 0.00 78 1013.3
20260504001022 58 247 3.0 4.0 0.00 0.00 0.00 78 1013.1
20260504000519 58 255 6.0 11.0 0.00 0.00 0.00 78 1013.2
20260504000017 58 254 2.0 7.0 0.00 0.00 0.00 79 1013.1
20260503235515 58 246 1.0 7.0 0.00 0.00 0.00 78 1013.2
20260503235011 58 244 6.0 7.0 0.00 0.00 0.00 77 1013.1